Weather in Aleshkino

Russia / Ulyanovsk Oblast     53°29′18″N   48°08′14″E
temp.,
°C
wind,
m/s
gust,
m/s
humid.,
%
clouds,
%
prec.,
mm/h
press.,
hPa
HPBL,
m
18 may, wed
wed1801:00+6sw228455 0.0 100211
04:00+5sw229098 0.0 100214
07:00+7wnw238651 0.0 1002225
10:00+10nw567499 0.1 1003901
13:00+10nw7978100 0.6 1004926
16:00+8nw5990100 1.7 1006760
19:00+9nw368837 0.1 1008341
22:00+6w22935 0.1 101016
19 may, thu
thu1901:00+6w229342 0.0 101034
04:00+5wnw2394100 0.0 101145
07:00+7w3885100 0.0 1011316
10:00+10wnw61074100 0.2 10111159
13:00+12wnw685464 0.1 10111636
16:00+13wnw695088 0.1 10102176
19:00+10nw697799 0.2 1011733
22:00+7w4788100 0.5 1011396
20 may, fri
fri2001:00+5wnw269441 0.0 1010126
04:00+4nw23964 0.0 101075
07:00+5nnw46865 0.0 1010319
10:00+8nw667096 0.2 10101233
13:00+8nw786992 0.6 10101386
16:00+7nw887254 1.1 10101314
19:00+6nnw7117838 0.3 10101230
22:00+4nw612865 0.4 1011505
21 may, sat
sat2101:00+3nw511905 0.0 1011390
04:00+1nw410937 0.0 1011289
07:00+4nw49815 0.0 1010451
10:00+8nw566192 0.1 10091342
13:00+9nw675894 0.9 10071670
16:00+9nnw676297 1.9 10071430
19:00+8nnw466555 0.3 10071088
22:00+4wnw227824 0.3 100728
22 may, sun
sun2201:00+2wnw36875 0.0 1007127
04:00+1wnw35925 0.0 100791
07:00+3wnw51075100 0.0 1006563
10:00+5nw71068100 0.3 10061464
13:00+5nw676181 0.1 10071471
16:00+7nw675665 0.1 10071462
19:00+7nw56655 0.0 1007940
22:00+3nw237616 0.0 100840